Tracking 18844 objects as of 21-Nov-2017
HD Live streaming from Space Station
objects crossing your sky now

FENGYUN 1C DEB

Track FENGYUN 1C DEB now!
10-day predictions


NORAD ID: 32438
Int'l Code: 1999-025DBA
Perigee: 753.6 km
Apogee: 807.3 km
Inclination: 99.4 °
Period: 100.3 minutes
Semi major axis: 7151 km
RCS: 0.0074 m2 (small)
Launch date: May 10, 1999
Source: People's Republic of China (PRC)
Launch site: Taiyaun Space Center, China (TSC)

Note: This is SATELLITE DEBRIS
aabbcc
Your satellite tracking list
Your tracking list is empty




NASA's NSSDC Master Catalog

Two Line Element Set (TLE):
1 32438U 99025DBA 17324.75685950  .00001279  00000-0  45874-3 0  9997
2 32438  99.4458 311.7384 0037590 206.9304 152.9928 14.35523688539532
Source of the keplerian elements: AFSPC